Regional Weather Roundup
Issued by NWS Northern Indiana

Home | Current Version | Previous Version | Graphics & Text | Print | Product List | Glossary On
Versions: 1 2 3 4 5 6 7 8 9 10 11 12 13 14 15 16 17 18 19 20 21 22 23 24 25 26 27 28 29 30 31 32 33 34 35 36 37 38 39 40 41 42 43 44 45 46 47 48 49 50
891
ASUS43 KIWX 210710
RWRIWX

KIWX WEATHER ROUNDUP
NATIONAL WEATHER SERVICE NORTHERN INDIANA
200 AM EST TUE NOV 21 2017

NOTE: "FAIR" INDICATES FEW OR NO CLOUDS BELOW 12,000 FEET WITH NO
SIGNIFICANT WEATHER AND/OR OBSTRUCTIONS TO VISIBILITY.

* THESE STATIONS ARE NOT UNDER NWS QUALITY CONTROL. THEY ALSO MAY NOT
  REPORT WEATHER SUCH AS PRECIPITATION OR FOG.

INZ001>027-210800-
NORTHERN INDIANA

CITY           SKY/WX    TMP DP  RH WIND       PRES   REMARKS
GARY*          CLEAR     44  28  54 S10G21    29.72F
VALPARAISO     PTCLDY    43  29  57 SW18G28   29.75F
MICHIGAN CITY* PTCLDY    41  28  60 S22G29    29.73F
LAPORTE*       MOCLDY    40  29  64 SW16G23   29.75F
KNOX*          CLOUDY    41  28  60 SW22G29   29.77S
SOUTH BEND     PTCLDY    41  28  60 SW20G29   29.75F
GOSHEN         CLOUDY    41  24  51 SW18G28   29.77F
MONTICELLO*    CLOUDY    41  25  53 SW18G24   29.81F
LOGANSPORT*    CLOUDY    37  28  70 SW15G24   29.83F
ROCHESTER*     CLOUDY    41  28  60 SW14G22   29.80F
WARSAW*        PTCLDY    41  27  56 SW12G21   29.80F
AUBURN*        CLEAR     41  23  48 SW12G20   29.81F
FORT WAYNE     MOCLDY    40  26  57 SW17      29.83F
HUNTINGTON*    CLEAR     38  24  56 SW12G18   29.83F
PERU/GRISSOM   CLOUDY    38  26  60 SW18      29.82F
MARION*        CLOUDY    36  27  69 SW15      29.86F

$$
INZ028>050-210800-
CENTRAL INDIANA

CITY           SKY/WX    TMP DP  RH WIND       PRES   REMARKS
LAFAYETTE      PTCLDY    42  26  53 SW13G23   29.84F
KOKOMO*        CLEAR     39  25  57 S17       29.85F
MUNCIE*        CLEAR     41  24  51 SW13G21   29.87F
INDIANAPOLIS   CLOUDY    36  24  62 S9        29.91F

$$
MIZ043>046-050>051-056>058-064>065-071>073-077>080-210800-
SOUTHWEST LOWER MICHIGAN

CITY           SKY/WX    TMP DP  RH WIND       PRES   REMARKS
BATTLE CREEK   CLOUDY    41  26  55 SW22G32   29.71F
BENTON HARBOR  PTCLDY    43  27  53 S10G18    29.70F
COLDWATER*     CLOUDY    40  23  51 SW16G24   29.76S
HILLSDALE*     CLEAR     37  23  56 SW14      29.76F
HOLLAND        CLEAR     45  32  60 SW25G33   29.65F
GRAND RAPIDS   CLEAR     43  29  57 SW22G30   29.64F
KALAMAZOO      CLOUDY    41  24  51 S20G26    29.71F
STURGIS*       MOCLDY    40  26  57 SW21G26   29.75F
THREE RIVERS*  FAIR      41  26  55 SW16      29.75F

$$
OHZ001>008-015>018-024>025-210800-
NORTHWEST OHIO

CITY           SKY/WX    TMP DP  RH WIND       PRES   REMARKS
WAUSEON*       FAIR      36  28  75 SW13      29.81F
DEFIANCE       CLEAR     36  25  64 S12       29.83F
FINDLAY        CLEAR     40  24  53 S16       29.85F
TOLEDO EXPRESS CLEAR     40  27  59 S15G24    29.81F
TOLEDO METCALF CLEAR     39  26  59 S13G22    29.83F
LIMA           CLEAR     38  25  59 S14G22    29.87F

$$
AND FOR LAKE MICHIGAN COASTAL AND OPEN LAKE BUOY OBSERVATIONS

STATION/POSITION TEMP    WIND        PRES    VSBY  WAVE
                 AIR SEA DIR/SP/G                  HT/PER
                 (F)     (DEG/KT/KT) (MB)    (MI)  (FT/S)
CALUMET HARBOR    43     190/ 13/ 20 1005.1F
MICHIGAN CITY     44     180/ 22/ 28   N/A
BURNS HARBOR      45     200/ 24     1006.8F
SAINT JOSEPH      45     200/ 17/ 27 1006.1
SOUTH LAKE BUOY   47 48  230/ 27/ 31 1002.7F         9/ 7

$$
&&




USA.gov is the U.S. government's official web portal to all federal, state and local government web resources and services.